Погода в Чекане

Россия / Республика Татарстан     54°50′42″N   53°33′31″E
темп.,
°C
ветер,
м/с
пор.,
м/с
влажн.,
%
обл.,
%
осадки,
мм/ч
давл.,
гПа
погр.,
м
15 мая, сб
сб1500:00+17ю346131 0.1 102239
03:00+16ю34637 0.1 102237
06:00+19ю310565 0.0 1022261
09:00+25ююз69362 0.0 1022554
12:00+29юз682984 0.0 10221098
15:00+29юз573034 0.0 10211454
18:00+24ююз334863 0.0 102132
21:00+19ююз33547 0.0 102138
16 мая, вс
вс1600:00+18ю33545 0.0 102122
03:00+17ю33535 0.0 102124
06:00+20ю37530 0.0 1021183
09:00+26ююз57380 0.0 1021577
12:00+29ююз68290 0.0 10202774
15:00+29юз56295 0.0 10193201
18:00+26ю33455 0.0 101823
21:00+21ю23505 0.0 101915
17 мая, пн
пн1700:00+18ююз335562 0.0 101941
03:00+17ююз3357100 0.0 101928
06:00+20ююз2760100 0.1 1020187
09:00+25ююз5746100 0.1 1020469
12:00+29юз463496 0.0 10201507
15:00+29зюз442965 0.0 10193096
18:00+26з224669 0.0 101819
21:00+21зюз2248100 0.0 101911
18 мая, вт
вт1800:00+18зюз116045 0.0 102011
03:00+18ююв11605 0.0 101911
06:00+21юз12575 0.0 1020121
09:00+27ю11415 0.0 1019611
12:00+29ю233312 0.0 10182115
15:00+30зсз2331100 0.0 10172746
18:00+22ю5963100 0.1 1018218
21:00+18в1167100 0.4 101912
19 мая, ср
ср1900:00+18ююв2264100 0.1 101719
03:00+16св2271100 0.1 101815
06:00+19вюв2468100 0.0 1018162
09:00+20вюв357096 0.1 1018227
12:00+23юв575476 0.0 1018459
15:00+27юв66425 0.0 10171849
18:00+22ююв486416 0.0 1017270
21:00+17ююв3476100 0.1 101866